DELTA 2 R/B(1)

Last updated on Sun Dec 21 2025 00:02:18 GMT+0000 (Coordinated Universal Time)

1 20453U 90008B 25354.24389821 .00034193 00000+0 53658-3 0 9996 2 20453 35.6080 332.0527 0111150 246.6814 112.2190 15.45794805913793
UTC large
Height (km)
Speed (km/s)
/
Latitude / Longitude
Inclination (degrees)
Orbital Period (minutes)
Azimuth
Elevation
Range (km)
Doppler Factor

Next 0 passes for location: London (51.5072 / 0.1276)

Sorry there are no passes over London.